Du Bois, PA

10:57 AM EST on January 16, 2018 (GMT -0500)
Du Bois-Jefferson County

Weather History for KDUJ - December, 2013

Change the Weather History Date:

Friday, December 20, 2013

  Actual Average Record
Temperature  
Mean Temperature 46 °F 27 °F  
Max Temperature 51 °F 33 °F 55 °F (1988)
Min Temperature 41 °F 20 °F -6 °F (2004)
Degree Days  
Heating Degree Days 19 38  
Month to date heating degree days 724 708  
Since 1 July heating degree days 2142 2225  
Cooling Degree Days 0 0  
Month to date cooling degree days 0 0  
Year to date cooling degree days 543 362  
Moisture  
Dew Point 37 °F    
Average Humidity 68    
Maximum Humidity 93    
Minimum Humidity 42    
Precipitation  
Precipitation 0.15 in 0.09 in 0.93 in (1973)
Month to date precipitation 1.29 2.06  
Year to date precipitation 42.13  
Sea Level Pressure  
Sea Level Pressure 29.92 in    
Wind  
Wind Speed 10 mph (SW)    
Max Wind Speed 23 mph    
Max Gust Speed 32 mph    
Visibility 9 miles    
Events Rain    
T = Trace of Precipitation, MM = Missing Value Source: NWS Daily Summary

Daily Weather History Graph

Daily Weather History Graph

Search for Another Location

Airport or City:

Trip Planner

Search our weather history database for the weather conditions in past years. The results will help you decide how hot, cold, wet, or windy it might be!

Date:

Astronomy

Dec. 20, 2013 Rise Set
Actual Time 7:37 AM EST 4:49 PM EST
Civil Twilight 7:05 AM EST 5:20 PM EST
Nautical Twilight 6:31 AM EST 5:55 PM EST
Astronomical Twilight 5:57 AM EST 6:29 PM EST
Moon 8:10 PM EST (12/20) 9:28 AM EST (12/20)
Length of Visible Light 10h 14m
Length of Day
9h 12m
Waning Gibbous, 90% of the Moon is Illuminated
Dec 20
Waning Gibbous
Dec 25
Last Quarter
Jan 1
New
Jan 7
First Quarter
Jan 15
Full

Hourly Weather History & Observations

Time (EST) Temp. Windchill Dew Point Humidity Pressure Visibility Wind Dir Wind Speed Gust Speed Precip Events Conditions
12:56 AM 44.1 °F 40.8 °F 28.0 °F 53% 30.00 in 10.0 mi SSW 5.8 mph - N/A   Scattered Clouds
1:56 AM 45.0 °F 40.1 °F 26.1 °F 48% 30.00 in 10.0 mi SW 9.2 mph - N/A   Clear
2:56 AM 46.0 °F 41.9 °F 26.1 °F 46% 29.99 in 10.0 mi SSW 8.1 mph - N/A   Partly Cloudy
3:56 AM 46.0 °F 41.9 °F 25.0 °F 44% 29.98 in 10.0 mi SW 8.1 mph - N/A   Overcast
4:56 AM 46.0 °F 41.9 °F 25.0 °F 44% 29.97 in 10.0 mi SW 8.1 mph - N/A   Overcast
5:56 AM 46.0 °F 41.4 °F 26.1 °F 46% 29.96 in 10.0 mi SW 9.2 mph - N/A   Overcast
6:15 AM 46.4 °F 41.9 °F 26.6 °F 46% 29.93 in 10.0 mi SW 9.2 mph - N/A   Overcast
6:24 AM 46.4 °F 42.9 °F 26.6 °F 46% 29.93 in 10.0 mi SW 6.9 mph - N/A   Mostly Cloudy
6:42 AM 46.4 °F 41.9 °F 26.6 °F 46% 29.93 in 10.0 mi SW 9.2 mph - N/A   Mostly Cloudy
6:56 AM 46.9 °F - 26.1 °F 44% 29.95 in 10.0 mi SW 8.1 mph - N/A   Overcast
7:56 AM 46.9 °F - 28.0 °F 48% 29.94 in 10.0 mi SW 15.0 mph 21.9 mph N/A   Overcast
8:56 AM 43.0 °F 36.4 °F 36.0 °F 76% 29.96 in 5.0 mi SW 12.7 mph 23.0 mph N/A   Haze
9:56 AM 42.1 °F 38.4 °F 37.9 °F 85% 29.97 in 4.0 mi SW 5.8 mph - 0.04 in Rain Light Rain
10:56 AM 42.1 °F 40.2 °F 37.9 °F 85% 29.96 in 10.0 mi SSW 3.5 mph - 0.04 in   Overcast
11:56 AM 44.1 °F 38.6 °F 37.0 °F 76% 29.94 in 10.0 mi SW 10.4 mph - 0.05 in   Overcast
12:56 PM 43.0 °F 39.5 °F 39.0 °F 86% 29.92 in 10.0 mi SSW 5.8 mph - 0.01 in   Overcast
1:56 PM 45.0 °F 39.3 °F 39.0 °F 80% 29.90 in 10.0 mi SW 11.5 mph - N/A   Overcast
2:56 PM 44.1 °F 40.1 °F 39.9 °F 85% 29.89 in 10.0 mi SW 6.9 mph - 0.00 in   Overcast
3:56 PM 46.9 °F - 39.9 °F 77% 29.88 in 10.0 mi SW 9.2 mph - 0.01 in   Overcast
4:56 PM 48.0 °F - 41.0 °F 77% 29.89 in 10.0 mi SW 10.4 mph - N/A   Overcast
5:56 PM 46.9 °F - 42.1 °F 83% 29.89 in 10.0 mi SW 9.2 mph - N/A   Overcast
6:56 PM 48.9 °F - 43.0 °F 80% 29.89 in 10.0 mi SW 12.7 mph 21.9 mph N/A   Overcast
7:43 PM 48.2 °F - 44.6 °F 87% 29.88 in 10.0 mi SW 12.7 mph - N/A   Overcast
7:56 PM 48.0 °F - 45.0 °F 89% 29.90 in 10.0 mi SW 12.7 mph - N/A   Overcast
8:56 PM 48.9 °F - 46.0 °F 90% 29.90 in 5.0 mi SW 12.7 mph 21.9 mph N/A   Overcast
9:14 PM 48.2 °F - 46.4 °F 93% 29.88 in 5.0 mi SW 13.8 mph 23.0 mph N/A   Overcast
9:56 PM 48.9 °F - 46.9 °F 93% 29.89 in 4.0 mi SW 16.1 mph - N/A   Overcast
10:51 PM 50.0 °F - 46.4 °F 87% 29.87 in 9.0 mi SW 13.8 mph 20.7 mph N/A   Overcast
10:56 PM 50.0 °F - 46.9 °F 89% 29.89 in 10.0 mi SW 13.8 mph - N/A   Overcast
11:18 PM 50.0 °F - 46.4 °F 87% 29.86 in 10.0 mi SW 15.0 mph - N/A   Overcast
11:56 PM 51.1 °F - 46.0 °F 83% 29.88 in 10.0 mi SW 13.8 mph - N/A   Overcast